Theta_e
330 330 327 326 327 327 325 323 322 322 319 317 316 316 316 316 316 314 313 312 311 310 309 307 306 305 303 303 302 302 302 302 302 302 302 302 302 301 300 300 300 300 300 300 300 300 299 300 300 300 300 300 300 300 300 300 299 299 299 299 299 299 299 300 301 301 300 299 299 299 299 299 299 299 299 299 299 299 299 299 299 299 299 299 299
330 329 327 325 326 327 325 323 322 321 318 316 315 315 315 316 315 313 313 312 311 310 309 307 306 304 303 302 302 302 302 302 302 302 302 302 301 301 300 300 299 300 300 300 300 300 299 299 300 300 300 300 300 299 299 299 299 299 299 299 299 299 299 299 300 300 300 300 300 299 299 299 300 299 299 299 299 299 299 299 299 299 299 299 299
329 328 327 326 326 326 323 322 322 320 317 316 315 315 315 315 314 313 312 311 311 310 309 307 306 304 303 303 302 302 302 302 302 301 301 301 301 301 300 300 299 299 299 299 299 300 300 300 300 300 300 300 300 299 300 299 299 299 299 299 299 299 299 299 300 299 300 300 300 299 299 300 300 299 299 299 299 299 299 299 298 298 299 299 299
327 327 327 327 326 325 322 322 321 318 316 316 315 315 315 314 313 312 311 311 310 310 308 307 306 305 304 303 303 303 303 303 302 301 301 301 301 300 300 299 299 299 299 299 300 300 300 300 300 301 300 300 300 299 299 300 299 299 299 299 299 298 299 299 299 299 299 300 300 300 300 300 300 300 299 299 299 299 299 299 298 298 299 299 299
325 325 327 326 324 323 322 320 319 317 317 317 315 315 315 314 312 311 311 311 310 309 308 307 306 306 305 304 303 303 303 303 302 301 300 301 300 300 299 299 299 299 299 299 299 300 300 300 300 300 300 300 300 300 300 300 300 299 299 299 298 299 299 299 299 299 300 300 300 300 300 299 300 300 299 299 299 299 299 298 298 298 299 299 299
324 324 326 324 322 321 320 319 317 317 317 316 314 315 314 313 312 311 310 310 310 309 308 308 307 306 305 304 304 304 303 302 302 301 300 301 301 300 300 299 299 299 299 299 300 300 300 300 301 301 300 300 300 299 300 300 300 299 299 299 299 299 300 299 299 299 299 300 300 300 299 299 300 299 298 299 299 299 299 298 298 299 299 299 299
323 323 324 322 321 320 319 318 318 317 316 315 314 314 314 313 311 310 310 310 309 309 308 308 307 306 305 305 304 304 303 302 301 301 301 301 301 301 300 300 299 299 299 299 299 299 300 301 301 300 299 299 299 299 299 300 300 299 298 299 299 299 299 298 299 299 299 299 299 299 299 299 299 299 298 299 299 298 298 298 299 299 299 299 299
323 322 322 321 321 320 319 318 317 315 315 314 313 314 314 313 311 310 309 309 309 309 308 307 307 306 305 305 304 304 302 301 301 301 301 301 301 301 301 300 300 299 299 299 299 299 300 300 300 298 297 296 296 296 295 297 298 298 297 297 297 298 298 298 298 298 298 299 299 298 299 299 298 298 298 298 298 298 298 298 299 299 298 298 299
323 322 321 320 320 320 319 318 316 314 314 313 313 313 313 312 310 309 309 309 309 308 308 307 307 306 306 305 304 304 302 301 301 301 301 302 302 302 301 301 300 300 299 299 299 299 299 299 297 295 293 292 292 292 291 292 294 295 296 296 296 296 297 297 297 297 297 298 298 298 298 298 298 298 298 298 297 298 298 298 299 298 298 299 299
323 322 322 321 320 319 317 316 315 314 313 312 313 313 312 311 310 309 309 309 308 308 308 307 307 306 306 305 305 304 303 302 301 301 301 302 302 302 302 301 301 300 300 300 299 299 299 298 295 293 293 292 291 291 290 289 290 291 292 292 293 294 296 296 296 296 296 297 298 298 298 298 297 297 298 297 297 297 298 298 298 298 298 299 299
322 322 321 320 318 317 316 315 314 313 312 312 312 312 312 311 309 308 308 308 308 308 307 307 307 306 305 305 305 304 303 302 301 300 301 301 302 302 302 301 301 301 300 300 300 299 299 299 297 296 296 296 295 293 291 289 288 289 289 289 289 291 292 294 295 295 296 296 297 297 297 297 297 297 297 296 296 297 297 298 298 298 299 299 299
321 321 320 318 316 315 315 314 313 312 311 311 311 311 311 310 308 308 308 308 308 307 307 307 306 306 305 305 305 304 303 302 299 299 300 300 301 302 302 302 302 301 301 300 300 299 299 299 299 298 296 296 297 297 295 292 290 290 291 291 290 290 290 290 292 293 295 296 297 297 296 296 296 296 296 295 296 297 297 297 297 298 299 299 299
320 319 317 316 315 314 313 313 312 311 311 310 310 310 309 308 308 308 308 308 307 307 307 307 306 306 306 305 305 304 303 300 297 297 299 299 300 302 302 302 302 301 301 300 300 300 299 299 300 299 296 296 297 298 298 296 295 294 295 294 294 293 292 291 290 291 293 296 297 296 295 295 295 295 295 295 296 296 296 297 298 299 299 298 298
319 318 316 315 314 313 312 312 311 310 310 309 309 309 309 308 308 308 308 308 307 307 307 307 307 306 306 305 305 304 303 299 297 298 299 298 299 301 302 302 302 301 301 300 300 300 299 299 300 299 299 298 296 296 297 298 298 297 297 297 297 296 295 293 293 292 293 295 296 295 295 294 294 293 294 295 295 296 296 297 298 298 298 298 298
318 317 315 314 313 312 312 311 310 310 309 308 308 308 308 308 308 308 308 307 307 307 307 307 307 306 306 305 304 304 304 300 298 298 299 298 298 299 302 303 302 302 301 300 301 300 298 299 299 299 299 298 293 292 295 298 298 298 297 298 298 298 296 294 293 293 293 294 294 294 294 293 292 292 293 294 294 295 296 297 298 298 298 298 298
316 315 314 314 312 311 311 310 309 309 308 307 308 308 308 308 308 307 307 307 306 307 306 306 306 306 306 305 304 305 304 301 299 299 299 299 298 298 301 303 302 302 302 301 301 300 298 299 299 299 299 297 293 290 292 296 298 298 298 299 299 299 297 295 294 293 293 293 294 294 294 293 293 293 294 293 294 294 296 297 297 297 298 298 298
317 315 314 313 312 311 310 309 308 307 307 307 307 307 307 308 307 307 306 306 306 306 306 306 306 305 305 305 305 305 304 301 300 300 299 299 299 299 302 303 302 302 302 301 301 300 299 299 299 299 299 297 293 291 292 296 298 297 298 300 299 299 298 297 296 295 294 294 295 295 295 295 295 295 295 294 293 294 296 297 297 297 297 298 298
317 315 314 313 312 310 309 309 308 307 306 306 306 306 306 306 306 305 305 305 305 305 305 305 305 305 305 305 304 305 303 301 300 300 299 298 298 300 302 302 302 302 302 301 301 301 299 296 296 299 300 296 293 292 292 295 299 298 298 299 299 299 298 297 297 297 295 296 297 297 297 297 296 296 296 295 294 294 295 296 296 297 297 297 298
316 315 314 313 313 311 309 308 308 306 306 306 305 305 305 305 304 303 303 303 303 303 304 304 305 304 304 304 304 304 303 301 299 299 299 298 298 300 302 302 302 302 302 301 301 300 299 295 293 295 297 295 293 293 292 294 297 298 298 299 299 298 297 296 297 296 296 298 298 298 298 297 297 297 296 295 295 295 295 296 296 296 297 297 297
316 315 313 312 311 310 309 309 308 307 305 305 305 304 304 303 303 302 301 301 302 302 302 303 303 303 303 304 303 303 303 301 299 299 299 298 298 300 302 302 301 301 301 301 300 300 300 297 294 293 294 294 293 293 292 292 294 297 298 298 298 296 295 295 296 295 297 298 298 297 298 297 297 297 296 296 296 295 296 296 296 296 297 297 297
316 314 312 311 310 309 309 309 308 307 305 305 304 304 303 303 302 301 300 300 301 302 301 302 303 302 302 303 302 303 303 302 300 299 299 299 298 299 301 302 301 301 301 300 300 300 299 298 297 294 293 294 293 293 293 292 292 296 298 296 294 293 293 294 295 296 297 298 297 297 297 297 296 296 296 296 296 296 296 297 296 296 296 297 297
315 313 312 311 310 309 309 308 308 307 306 305 304 303 302 302 302 301 300 300 301 301 301 301 302 302 302 302 302 302 302 301 300 299 299 299 298 298 299 300 300 300 301 300 300 299 299 299 298 295 293 294 294 293 294 293 293 295 295 294 293 292 292 294 296 297 297 297 297 297 297 297 296 296 296 295 295 296 297 297 296 296 296 296 297
314 312 312 311 310 309 308 307 306 306 305 304 303 303 302 302 301 301 300 300 300 300 300 300 301 301 301 301 302 302 301 300 299 299 299 298 298 298 298 298 298 299 300 300 299 299 298 298 298 296 293 293 294 293 294 294 294 294 294 293 293 293 294 295 297 297 297 297 297 297 297 296 296 296 296 295 296 297 297 296 296 296 296 296 296
313 312 311 310 309 308 307 306 305 305 304 304 304 304 303 302 301 300 300 300 300 300 299 299 300 300 301 301 301 301 300 299 298 298 298 298 298 297 296 295 295 297 299 299 299 298 298 298 297 295 293 294 294 294 294 294 294 294 294 294 294 294 296 297 298 297 297 297 297 297 296 296 296 296 296 297 297 297 297 296 296 296 296 296 296
313 312 311 310 309 307 307 306 305 305 305 304 305 304 303 301 301 300 300 300 300 299 299 299 299 300 300 300 300 299 300 299 298 297 297 297 296 295 292 291 293 294 296 298 298 297 297 297 296 294 293 294 294 294 295 295 295 294 294 294 294 296 297 298 297 297 297 297 296 296 296 297 297 297 297 297 297 297 296 296 296 296 296 296 296
314 312 311 310 308 308 307 306 306 306 305 305 305 304 302 301 301 301 301 301 300 299 298 298 299 299 299 300 300 299 299 299 298 297 296 294 293 291 290 290 291 292 292 295 297 297 296 296 295 294 294 294 295 296 297 297 296 295 295 295 296 297 298 298 297 297 297 297 297 297 297 297 298 297 297 297 297 297 297 296 296 296 296 296 296
313 312 311 309 308 307 307 306 306 306 305 305 304 303 303 302 302 302 301 301 300 299 298 298 298 299 299 299 299 299 298 298 297 296 294 291 290 290 290 289 290 290 291 293 295 295 295 294 293 294 294 294 295 295 296 296 296 296 296 297 298 298 298 297 296 297 297 298 298 298 298 298 298 297 297 298 298 297 297 297 297 297 297 296 296
313 311 310 309 308 307 307 307 306 306 305 305 305 304 303 303 302 302 301 300 299 299 298 298 298 298 299 299 298 298 297 296 296 296 294 292 292 292 291 291 291 292 292 294 295 295 295 295 294 294 295 296 296 296 297 297 298 298 298 299 299 298 298 297 297 298 298 298 298 298 298 298 298 298 298 298 298 297 297 297 297 297 297 297 297
313 312 310 309 308 307 307 307 306 306 306 305 305 304 303 302 302 301 300 300 300 299 298 298 297 298 298 297 297 297 297 296 295 296 295 293 293 294 293 293 294 294 294 294 296 297 297 296 296 296 297 298 298 299 299 300 299 299 299 299 299 299 298 298 298 298 298 298 298 298 298 298 298 298 298 297 297 297 297 297 297 297 297 297 297
313 312 311 310 309 308 307 307 306 306 306 305 305 304 303 302 302 301 300 300 300 300 299 298 297 296 296 296 297 297 296 295 295 295 295 293 292 293 294 294 295 295 294 294 295 296 297 297 297 297 298 298 299 299 299 299 299 299 299 299 298 298 298 298 298 298 298 297 297 297 297 297 298 298 298 297 297 297 297 298 298 297 297 297 297
313 312 311 311 309 308 308 307 307 306 306 306 306 305 302 301 301 301 301 301 301 300 300 298 296 295 295 296 296 295 295 295 295 294 293 291 290 291 292 292 291 292 292 292 293 294 295 296 297 297 297 298 298 298 298 298 298 298 298 298 298 298 298 298 298 298 298 297 297 297 297 297 298 298 298 297 297 297 298 298 298 298 298 297 297
312 312 311 310 308 308 307 307 307 307 307 306 306 305 304 302 301 300 300 300 300 300 299 298 296 295 294 295 296 295 294 296 296 293 291 291 291 292 292 292 291 290 290 290 292 293 295 296 296 296 297 297 297 297 297 297 298 298 298 298 298 298 298 298 298 298 298 298 298 297 297 297 297 297 298 297 297 298 298 298 298 298 298 298 297
312 311 310 309 308 307 307 307 306 306 307 306 306 306 305 304 302 300 299 299 299 298 297 297 297 296 294 294 295 295 294 294 294 293 293 294 295 295 295 295 294 293 291 290 291 292 294 295 296 296 296 296 296 296 296 297 298 298 299 299 299 299 299 299 299 299 299 298 298 298 298 298 298 298 298 298 298 298 298 298 298 298 298 298 297
312 310 310 309 308 307 307 307 306 306 307 306 306 306 305 305 304 302 300 299 299 298 296 296 295 296 294 293 293 294 293 292 293 295 296 297 297 297 297 297 297 296 294 293 292 293 294 294 295 296 296 295 295 295 296 296 297 298 298 299 299 299 299 299 299 299 299 298 298 298 298 298 298 298 298 298 298 298 298 298 298 298 298 298 297
312 310 309 309 308 307 307 307 306 306 307 307 306 306 306 305 305 304 302 301 301 300 299 297 296 296 296 295 294 293 292 293 294 296 298 298 298 298 298 298 297 297 296 295 295 295 296 296 296 296 296 295 295 295 296 297 298 298 299 299 299 299 299 299 299 298 298 298 299 298 298 298 298 298 298 298 298 298 298 298 298 298 298 297 297
313 310 309 308 308 307 307 307 307 307 307 307 307 306 305 305 305 304 304 303 302 302 301 300 299 298 298 298 298 296 294 294 295 296 297 297 297 298 298 297 297 297 297 297 297 297 297 298 297 297 296 295 295 296 297 298 298 299 299 299 299 299 299 298 298 298 298 298 298 298 298 298 298 298 298 298 298 298 298 298 298 298 297 297 296
313 311 309 308 308 307 307 307 307 307 307 306 306 305 305 305 305 305 305 304 304 303 303 301 300 300 299 299 299 299 297 295 295 295 296 296 296 297 298 298 298 298 299 299 299 299 299 298 298 297 296 296 296 297 298 298 299 299 299 299 298 298 298 298 298 297 297 297 297 297 297 298 298 298 298 298 298 298 298 298 298 297 297 296 296
313 311 310 309 309 308 308 307 307 307 306 305 306 306 306 306 306 306 306 305 304 304 303 303 301 300 300 299 299 298 297 296 296 296 296 296 296 297 297 298 299 300 300 301 300 300 299 299 297 297 296 296 297 298 298 298 299 299 299 299 299 299 299 298 297 297 297 297 297 298 298 298 298 298 298 298 298 298 298 298 298 297 297 297 297
314 312 310 309 309 309 308 307 306 306 305 305 306 307 307 307 306 306 306 306 305 304 304 304 303 301 301 299 297 295 296 296 296 296 296 296 297 297 297 298 299 300 301 301 301 300 299 298 297 296 297 297 298 298 298 299 299 299 299 299 299 299 299 299 298 298 298 298 298 298 298 298 298 298 298 298 299 299 298 298 297 297 297 297 297
313 311 309 309 309 308 308 307 306 306 305 306 307 307 307 306 306 306 306 306 305 304 304 304 303 302 300 298 295 294 295 297 297 297 297 297 297 298 298 298 299 301 301 301 301 300 300 298 297 296 297 298 298 299 299 299 299 299 299 299 299 299 299 299 299 298 298 298 298 298 298 298 298 298 298 299 299 299 298 298 298 297 297 297 297
313 310 308 308 308 308 307 306 306 306 305 305 307 307 307 306 306 306 306 306 305 305 304 304 303 301 300 299 296 294 295 298 299 299 299 298 298 299 299 299 300 301 301 301 300 300 300 298 297 297 298 298 299 299 299 299 299 299 300 299 299 299 299 299 299 298 298 298 298 298 298 298 298 299 299 299 298 298 298 298 298 298 298 298 297
311 308 307 306 307 307 306 305 305 305 304 305 306 307 307 306 306 306 306 305 305 304 304 303 303 301 300 299 297 295 296 299 300 300 300 300 299 299 299 300 300 301 301 300 300 300 299 299 298 298 299 299 299 299 299 299 299 300 300 300 300 300 299 299 299 298 298 298 298 298 298 298 298 299 299 298 298 299 299 299 298 298 298 298 298
309 307 306 306 306 307 307 306 305 304 304 304 305 306 306 306 306 305 305 304 304 303 303 302 302 301 300 299 298 297 298 300 301 301 301 301 301 300 300 300 300 300 300 300 300 299 299 299 299 299 299 299 299 299 299 299 299 299 300 300 300 300 299 299 299 298 298 298 298 299 299 299 299 299 299 299 299 299 299 299 298 298 298 298 298
308 307 307 306 306 306 306 305 304 303 303 303 304 304 305 305 305 305 304 304 303 302 302 302 302 301 300 299 298 298 298 299 300 300 300 301 301 301 300 301 301 300 300 300 299 299 299 299 299 299 299 299 299 299 300 300 300 300 300 300 299 299 299 299 299 299 299 299 299 299 299 299 299 299 299 299 299 299 299 299 298 298 298 298 298
308 307 306 306 306 306 305 304 304 303 302 302 303 303 304 304 305 305 304 304 303 302 302 302 302 301 299 298 298 298 298 298 298 299 299 300 300 301 301 301 301 300 300 300 299 299 300 299 299 299 299 299 299 299 300 300 301 301 300 300 300 299 299 299 299 299 299 299 299 299 299 299 299 299 299 299 299 299 299 299 299 298 298 298 298
306 306 306 306 306 306 305 305 304 303 303 303 303 303 303 304 304 304 304 303 303 302 302 301 301 300 299 299 298 298 298 298 298 298 299 300 300 300 300 301 300 300 300 300 300 300 300 300 299 299 299 299 299 299 300 300 301 301 301 301 301 300 300 300 299 299 299 298 298 299 299 299 299 299 299 299 298 299 299 298 298 298 297 297 297
306 306 306 306 306 306 305 305 304 304 304 303 303 303 303 304 304 304 303 303 302 302 302 301 301 300 300 300 300 299 298 298 298 299 299 300 300 300 300 301 300 300 300 300 300 299 300 300 300 300 300 300 299 299 300 301 301 301 301 301 301 301 301 301 300 300 300 299 298 298 299 298 298 298 298 298 298 298 298 298 298 297 297 297 297
307 306 306 306 306 306 306 305 304 304 304 303 303 303 304 304 304 304 304 303 302 302 302 301 301 300 300 300 300 300 299 299 298 299 300 300 300 301 301 301 300 300 300 300 300 300 300 300 300 300 300 300 300 300 300 300 300 301 301 301 301 301 301 300 300 301 300 300 299 298 298 298 298 298 298 297 297 298 298 298 298 298 298 298 298
307 307 306 306 306 306 305 304 304 304 304 304 304 304 304 304 304 304 304 303 302 301 301 300 300 300 300 300 300 300 300 299 299 299 300 300 300 300 301 301 300 300 300 300 300 300 300 300 300 300 300 300 300 299 299 299 300 300 300 301 301 301 300 299 299 299 299 298 298 298 297 297 297 297 298 297 297 297 297 297 297 297 297 297 298
307 307 306 306 305 305 305 305 305 304 304 305 305 304 304 304 304 303 303 302 300 300 300 300 300 300 300 300 300 300 300 300 299 299 299 300 300 300 300 300 300 300 300 301 301 301 301 300 300 300 299 299 299 299 299 299 299 300 300 300 300 300 299 299 299 299 299 298 298 298 297 297 297 297 297 298 297 297 297 297 297 297 297 297 297
306 306 306 306 305 305 305 305 305 305 305 305 305 305 304 303 303 303 302 301 300 300 300 300 300 300 300 300 300 300 300 299 299 299 300 300 301 301 300 300 300 301 301 301 301 301 301 301 301 300 300 300 300 299 299 299 299 299 299 299 299 299 299 299 299 299 299 298 298 297 297 297 297 298 298 297 297 297 297 297 297 296 296 297 297
Wind_Speed
22 20 18 21 27 26 25 26 25 23 22 20 18 17 15 13 13 14 15 15 15 15 14 14 14 14 14 14 14 14 13 13 12 11 11 11 10 10 10 10 11 11 11 11 11 10 11 11 10 9 7 7 7 6 7 6 6 7 7 6 6 6 7 7 7 8 10 11 13 14 14 16 17 17 18 20 21 23 24 24 25 26 26 27 29
22 22 21 24 28 27 26 27 25 23 22 20 18 17 15 13 13 15 15 15 15 15 15 15 14 14 14 14 14 14 13 12 11 11 11 11 11 10 10 11 11 11 11 11 10 10 10 10 9 8 7 7 7 7 6 6 6 6 6 6 6 6 6 7 8 9 11 12 13 14 15 16 16 17 19 20 22 24 24 24 25 26 26 27 28
20 22 25 27 27 27 27 27 25 23 21 19 18 17 14 12 14 15 15 15 15 15 15 15 15 14 14 14 14 14 13 12 11 11 12 12 11 11 11 11 11 11 11 10 10 9 9 8 8 7 7 7 7 6 6 5 5 6 5 4 5 6 6 6 7 9 11 12 13 14 15 16 17 18 19 20 22 24 24 24 26 28 27 27 28
19 22 27 27 26 27 27 27 26 23 20 18 18 18 15 13 14 15 16 16 15 15 15 15 15 15 14 14 14 14 13 12 12 12 12 12 12 12 12 12 11 11 11 10 9 8 8 7 7 6 6 6 6 6 6 5 5 5 5 4 5 6 6 6 7 9 10 12 13 14 15 16 17 17 19 20 22 22 23 25 27 28 27 26 27
20 23 29 28 28 29 28 26 25 21 18 18 19 18 15 14 14 16 16 16 16 16 16 16 15 15 14 14 14 14 13 13 13 13 12 12 12 12 12 12 12 11 10 10 9 8 7 7 7 6 6 6 5 5 5 5 5 6 6 5 6 7 7 7 8 9 10 12 13 13 14 16 16 17 19 22 23 23 23 25 27 27 27 26 26
23 27 32 31 29 29 28 25 22 20 18 19 20 18 15 14 15 16 16 16 16 16 16 16 15 15 14 14 14 14 13 13 13 13 13 12 12 12 12 12 12 11 10 9 8 7 7 6 6 6 5 5 5 5 5 5 5 6 7 7 7 8 7 8 8 9 10 12 12 13 14 15 16 17 19 22 23 24 25 26 26 26 27 28 26
26 30 31 29 27 28 26 23 21 20 20 20 21 18 15 15 15 16 16 16 17 16 16 16 15 15 14 14 14 14 13 13 13 13 13 13 12 12 12 12 12 11 10 9 8 7 6 6 5 6 5 5 5 5 5 5 4 6 7 7 8 8 8 8 9 9 11 12 12 14 15 15 16 18 20 21 22 23 26 28 28 27 28 28 27
27 29 26 24 25 25 23 21 21 21 21 21 20 17 15 15 16 16 16 16 16 16 16 16 15 14 14 14 14 14 14 14 14 14 13 13 12 12 12 12 11 11 10 8 7 6 6 6 6 6 6 6 7 7 7 6 5 5 7 8 8 9 9 9 10 10 11 12 13 14 15 15 16 18 20 21 22 24 26 27 28 29 30 29 26
26 27 24 22 24 23 21 21 21 21 21 20 19 17 16 16 16 16 16 16 16 16 16 16 15 15 15 14 14 14 14 14 14 14 14 13 13 12 11 11 11 11 9 8 7 6 6 6 6 6 6 8 8 9 9 9 7 6 6 7 8 8 9 9 10 11 11 12 13 14 15 15 17 19 20 21 23 25 27 27 27 28 29 28 25
23 25 23 21 21 21 21 21 20 21 21 20 19 17 17 17 17 17 17 16 16 16 16 16 15 15 15 15 14 14 14 14 15 16 14 13 12 12 11 11 10 10 9 8 7 6 5 5 5 6 6 8 9 10 10 9 8 7 7 8 8 8 9 9 10 11 12 12 13 14 15 16 18 19 19 21 23 25 27 27 27 28 28 26 24
22 23 22 20 20 21 22 22 21 21 21 20 19 18 17 18 18 18 17 17 16 16 16 16 16 15 15 15 15 14 13 15 18 19 17 14 12 11 11 10 9 9 8 7 7 6 5 5 4 4 4 4 5 8 10 9 8 7 7 9 10 10 9 9 10 11 12 12 13 14 15 16 18 18 18 21 23 24 25 26 26 28 27 25 24
21 21 22 22 21 22 23 23 21 21 21 20 20 18 18 19 18 18 18 17 17 17 16 17 16 15 16 15 15 14 13 16 21 21 19 16 13 10 10 10 9 8 7 7 6 6 5 5 4 3 3 4 3 3 6 7 7 8 8 9 11 12 12 11 11 10 11 11 12 14 14 16 18 18 19 21 22 23 25 25 25 26 26 25 25
22 21 22 23 21 22 24 23 21 21 21 21 20 19 19 19 19 18 18 17 17 17 17 17 16 16 16 15 15 14 13 17 21 21 18 17 14 10 9 8 8 7 7 6 5 5 5 5 4 3 3 5 4 2 2 4 5 7 8 7 8 11 13 14 14 13 11 10 11 13 14 15 17 18 19 20 21 23 24 24 24 25 26 27 26
22 21 23 23 22 23 25 23 20 20 21 21 21 20 20 20 19 18 17 17 17 17 17 17 16 17 16 15 15 14 14 18 22 20 17 16 14 10 7 7 8 7 7 6 5 5 4 4 4 4 2 3 3 3 2 2 3 4 5 5 4 7 11 12 13 13 11 9 10 13 13 14 15 17 18 18 19 21 23 24 24 25 27 27 25
21 21 22 22 23 25 25 22 20 21 21 21 21 20 20 20 19 18 17 17 17 17 17 17 17 17 17 15 15 14 14 18 22 20 17 15 13 10 6 6 7 7 7 7 5 5 4 4 3 3 3 2 3 5 3 2 2 3 4 4 4 4 7 10 12 13 12 10 10 11 12 13 15 16 17 18 18 20 22 22 23 25 26 25 24
22 22 22 22 24 27 25 22 22 22 22 22 22 21 20 19 18 17 16 16 17 16 16 17 16 17 17 15 15 13 14 19 21 20 18 16 14 12 8 7 8 8 8 8 6 5 5 4 4 3 3 1 3 5 5 3 2 3 4 4 4 4 5 10 14 15 16 14 13 14 15 18 21 21 20 22 22 22 21 20 21 24 24 23 23
23 23 23 23 25 26 24 23 24 23 23 24 22 21 21 20 18 18 16 15 16 15 16 16 16 17 16 16 15 13 14 19 21 20 18 17 15 12 9 8 8 8 8 8 7 6 5 5 4 3 3 2 2 4 5 5 3 4 5 4 5 5 7 10 12 14 17 17 17 18 20 21 24 23 22 24 25 23 21 20 22 24 23 22 21
23 25 27 28 29 26 22 22 24 24 24 23 22 23 23 21 21 21 19 17 16 15 15 15 15 16 16 16 15 13 14 19 22 20 19 19 17 14 11 9 10 9 8 8 8 7 7 7 6 4 3 2 1 3 4 5 3 4 4 4 5 6 9 11 11 14 17 17 16 18 19 20 21 20 20 23 24 22 19 20 22 23 22 22 22
24 29 33 35 33 29 25 24 26 27 25 22 23 25 25 23 24 25 23 20 17 15 14 14 14 15 16 16 16 14 14 19 23 22 21 21 19 16 13 12 12 11 10 10 9 8 8 8 7 6 5 3 2 3 3 4 3 3 4 5 5 6 9 11 11 13 15 15 15 16 16 16 17 17 19 21 22 21 19 19 21 21 21 22 23
25 28 30 31 32 31 30 30 32 32 28 25 25 27 26 25 26 26 24 19 15 14 15 14 14 15 15 16 17 15 14 19 24 24 22 22 21 17 12 10 11 11 10 10 10 9 9 8 8 8 5 3 2 2 3 3 3 3 4 5 5 7 10 11 12 14 14 14 14 15 14 15 16 16 19 20 21 22 21 19 20 20 21 22 23
23 23 24 27 31 33 33 33 35 34 32 30 29 29 28 27 26 25 22 16 13 14 15 14 13 14 15 15 17 16 14 17 22 24 22 21 21 18 13 9 9 10 11 11 10 10 10 9 9 8 6 4 3 2 2 3 4 2 3 5 6 9 11 12 12 13 13 13 14 14 14 15 16 16 18 20 21 22 22 21 20 20 21 21 22
24 24 25 27 30 33 33 33 34 34 32 32 31 28 27 27 27 25 21 16 13 14 14 14 13 14 15 15 16 16 15 16 20 22 22 20 19 19 16 11 10 10 10 11 11 10 9 9 9 9 7 5 4 2 2 3 4 2 3 6 8 10 12 11 11 11 12 13 13 14 14 15 16 17 18 19 21 22 22 23 23 22 20 20 21
27 25 26 29 31 33 33 33 33 33 32 32 30 25 23 23 24 23 19 16 15 15 14 14 14 14 15 15 15 15 15 17 20 22 22 21 20 20 18 15 13 11 10 9 10 9 8 8 9 10 8 6 5 4 3 3 3 3 5 7 9 11 11 9 9 10 12 13 13 13 14 15 16 17 17 18 20 21 22 23 25 24 21 20 20
26 25 27 30 31 32 33 31 31 30 30 29 26 21 20 21 20 19 18 16 15 15 15 15 14 14 15 15 14 14 14 15 19 22 21 21 21 19 18 18 17 14 11 9 8 9 9 9 11 11 9 7 6 5 4 4 4 4 6 8 9 10 8 8 9 10 11 12 12 13 14 14 15 16 17 18 19 20 20 22 24 24 23 22 21
25 23 25 26 27 27 27 26 25 26 26 26 22 20 22 22 19 17 17 16 15 15 15 16 15 15 15 15 15 15 14 13 17 21 22 20 19 19 18 18 18 17 14 10 8 10 12 12 13 11 9 8 7 6 6 6 5 5 6 8 8 8 7 7 9 10 11 11 12 12 13 13 14 16 17 18 19 19 20 21 22 23 23 23 22
24 23 24 26 27 25 22 22 22 22 24 24 22 21 23 23 20 18 18 17 15 15 15 16 15 15 15 15 14 15 15 14 15 19 22 20 19 18 18 17 16 17 17 14 13 13 14 14 13 11 10 9 8 7 8 8 8 8 7 6 7 6 6 7 9 10 10 10 11 12 13 13 14 16 17 18 20 21 20 20 21 22 23 23 23
23 23 25 28 30 26 22 22 22 21 22 22 21 21 22 22 21 19 19 17 16 15 15 16 16 15 15 15 15 14 16 16 15 17 21 21 20 19 19 18 16 16 16 15 14 14 14 14 14 12 11 11 10 10 10 10 10 9 8 7 7 6 6 7 9 9 9 9 10 11 12 13 14 15 17 19 21 22 21 20 20 21 22 22 22
23 23 24 27 28 24 22 24 23 20 21 22 20 20 22 22 21 21 21 19 17 16 16 16 16 16 16 16 16 15 16 17 17 17 19 21 20 18 18 17 15 15 15 14 12 12 12 13 13 13 12 12 11 11 11 10 9 8 7 6 6 6 7 8 8 8 7 8 9 10 12 13 13 15 18 19 20 21 21 20 20 21 22 21 21
23 24 23 23 23 21 21 23 22 20 20 21 20 19 21 22 22 21 22 22 20 18 18 17 17 18 17 17 18 17 17 18 19 19 20 22 21 18 16 15 13 13 14 14 12 10 10 11 12 12 12 11 11 10 9 8 7 7 6 6 6 7 7 7 8 7 7 8 9 10 11 13 13 15 17 18 19 20 20 20 21 23 23 23 22
22 23 22 21 21 21 21 22 21 19 20 21 19 17 19 23 23 21 22 25 25 23 21 20 19 19 17 17 18 18 17 17 20 21 23 23 22 18 16 16 14 14 15 16 14 11 10 11 12 12 11 11 10 9 9 8 7 7 6 6 7 6 6 7 8 7 7 7 9 10 11 12 13 14 16 17 18 19 19 19 20 23 24 24 24
21 21 21 21 22 22 21 21 21 19 19 20 18 16 17 20 22 21 21 25 28 27 25 23 22 21 19 18 17 18 17 16 19 23 24 22 20 19 17 16 15 15 15 16 16 13 12 11 12 12 12 11 10 9 9 9 9 8 8 7 7 6 7 8 8 7 7 8 9 10 11 12 13 14 16 17 17 18 18 18 19 20 21 22 23
21 20 19 21 24 23 20 20 20 18 18 18 18 17 17 18 20 22 23 24 27 28 27 24 23 23 23 20 18 19 20 18 18 20 21 19 18 17 15 14 13 13 13 14 13 13 12 13 12 12 12 11 11 10 10 10 10 10 9 8 8 7 8 8 8 8 9 9 9 10 11 12 13 15 16 17 17 17 18 18 18 18 18 19 21
22 21 20 21 23 22 19 19 20 19 19 19 18 18 18 18 18 20 21 21 22 25 27 26 25 24 25 23 21 21 22 21 19 19 20 19 17 16 16 15 14 14 14 14 14 13 13 13 13 13 12 12 11 11 11 11 11 10 10 9 8 9 9 8 9 9 10 10 10 11 12 12 14 15 16 17 17 17 17 18 17 17 17 17 19
21 22 24 24 24 22 19 20 21 19 19 19 19 18 19 19 18 18 18 17 18 21 25 28 27 25 24 25 25 23 22 23 22 21 20 19 17 16 16 17 17 17 17 17 16 14 14 14 14 13 12 12 11 11 11 11 11 10 10 10 9 9 9 9 10 10 10 10 10 11 11 12 14 15 16 17 17 16 17 17 16 16 16 16 18
19 22 26 27 25 22 20 20 21 20 19 19 19 19 19 19 18 18 19 18 18 18 20 24 28 28 26 26 26 25 24 25 24 22 20 19 18 17 16 17 18 20 21 21 19 16 15 14 14 13 13 12 12 12 11 11 11 10 10 10 10 9 10 10 11 11 11 11 11 11 12 14 15 15 15 16 16 16 16 16 15 15 16 16 16
17 20 24 26 24 23 20 19 20 21 20 19 19 18 18 18 18 18 19 19 19 18 17 19 25 29 29 26 25 25 25 26 25 23 21 19 18 18 17 17 18 19 20 22 22 19 17 16 14 14 13 12 12 12 11 11 10 10 10 10 10 10 10 11 11 11 11 12 12 13 14 15 15 15 15 15 15 15 15 15 15 14 15 15 16
18 20 23 24 23 22 21 20 20 22 22 20 18 17 17 18 19 18 18 18 19 18 17 17 19 22 26 27 26 24 24 26 26 24 23 21 19 19 18 17 17 17 18 19 19 18 17 17 15 14 14 13 13 13 12 11 11 10 10 10 11 11 11 12 13 14 14 14 14 14 14 15 15 14 13 14 15 15 15 15 14 14 14 15 15
19 19 23 24 22 21 21 20 21 23 22 19 17 18 18 19 19 19 19 19 18 18 18 17 17 18 21 25 26 25 24 25 25 23 23 22 22 22 20 17 16 17 18 17 17 17 16 15 15 15 15 14 14 13 12 12 11 11 11 11 11 11 12 13 14 16 16 15 15 14 14 14 13 13 13 14 15 15 15 14 14 14 14 14 13
17 18 23 26 23 20 18 18 19 21 20 18 18 18 19 19 19 19 19 19 18 19 19 19 19 18 18 21 26 27 24 23 23 23 24 25 25 24 22 20 18 19 19 18 16 16 16 15 15 15 14 14 14 14 13 13 12 12 12 12 12 12 13 13 14 14 14 14 14 13 13 13 13 14 14 15 15 14 14 14 14 14 13 13 13
17 18 25 27 23 18 16 17 18 19 18 18 18 18 18 18 18 18 19 18 18 19 20 19 19 18 17 20 27 29 25 21 21 22 23 26 27 25 24 23 21 20 20 19 17 16 15 15 15 15 15 15 15 14 14 13 13 13 13 13 13 13 14 14 14 14 14 14 14 14 14 14 15 14 14 15 15 14 14 14 14 13 13 13 13
16 18 24 26 22 17 16 17 18 20 19 18 17 17 17 18 17 17 18 18 17 18 19 18 17 16 17 20 26 29 25 20 19 19 20 24 27 26 25 24 23 21 20 19 18 17 16 15 15 15 15 15 15 14 14 14 13 13 13 13 13 14 14 14 15 15 15 15 15 15 16 15 15 15 15 16 16 14 14 14 13 13 13 13 13
15 17 22 23 21 18 17 19 22 23 20 18 17 17 16 17 18 17 17 17 16 16 16 16 14 15 17 22 26 28 25 21 19 19 19 20 22 23 23 22 21 20 20 19 18 17 17 16 16 16 15 15 15 15 14 14 14 14 14 13 13 14 14 14 14 14 15 16 16 17 17 18 18 17 17 17 16 14 13 13 13 13 13 12 12
16 17 19 20 20 19 18 20 23 23 21 19 18 18 17 17 17 17 16 16 15 15 15 15 14 14 17 21 25 27 26 21 18 18 18 17 17 18 19 19 19 19 19 18 18 18 17 17 16 16 15 15 15 15 15 14 14 14 14 14 14 14 15 15 15 14 15 16 16 17 18 18 18 18 16 15 14 13 13 14 13 13 12 12 12
16 16 17 18 19 17 16 18 21 23 24 23 19 17 16 16 16 16 15 15 15 15 15 15 15 14 16 19 23 25 25 21 17 15 15 15 15 15 16 17 17 18 18 18 18 18 17 17 16 16 16 15 15 15 15 15 15 15 15 15 15 15 16 17 18 17 17 17 18 18 18 17 17 16 15 15 14 13 14 14 13 12 13 13 13
15 15 16 16 16 15 15 16 18 20 21 20 17 14 14 14 14 14 15 14 14 15 15 15 14 14 15 19 23 25 24 23 22 20 17 15 15 16 16 17 17 17 17 17 17 17 17 18 18 19 19 18 17 16 16 16 16 16 15 16 17 18 18 19 21 21 21 20 20 19 18 18 17 16 16 15 14 13 14 14 13 13 13 13 13
15 15 15 15 15 15 15 15 15 15 16 17 16 13 13 13 14 14 14 14 14 14 14 14 14 14 14 16 19 22 24 24 24 22 19 16 15 16 17 16 16 16 17 17 17 18 19 20 20 21 21 20 19 18 17 16 16 16 16 17 18 19 20 20 22 23 24 25 24 21 18 16 15 16 17 18 17 16 16 16 17 17 16 15 14
15 14 15 15 14 15 15 15 15 15 15 16 17 15 14 15 15 14 14 14 14 14 14 14 14 14 15 15 15 18 22 24 24 20 17 16 16 16 16 16 15 15 16 16 18 20 21 22 21 21 21 20 20 19 18 17 16 17 17 17 17 18 19 20 20 20 19 20 22 23 22 20 18 18 17 17 17 16 16 16 17 18 19 17 15
14 13 14 14 14 14 14 14 15 15 15 15 17 17 16 16 15 14 15 15 14 13 13 13 13 13 14 15 14 14 17 22 24 20 16 14 15 16 16 16 17 17 17 18 19 21 22 22 22 23 23 22 21 21 21 20 18 17 18 18 18 18 20 20 19 15 14 15 19 22 23 24 23 22 20 19 19 19 19 18 17 17 16 15 14
13 12 13 13 13 14 14 14 15 16 16 16 16 17 16 15 15 14 13 13 13 13 13 13 13 13 13 14 15 14 15 19 20 18 15 14 16 17 17 17 18 20 19 19 20 21 21 22 22 23 23 22 22 22 22 21 20 19 19 19 18 19 21 22 21 19 18 19 21 22 23 24 24 24 22 21 21 21 21 21 21 20 18 16 15
12 12 12 13 13 14 14 14 15 16 16 15 15 16 15 15 14 13 12 12 14 15 14 12 13 13 13 14 15 15 15 16 16 15 14 15 16 18 19 19 19 20 20 20 21 21 21 21 22 22 22 22 21 21 22 22 21 20 19 19 20 22 23 23 23 23 23 23 22 22 22 21 20 20 20 20 20 21 21 22 23 21 19 17 16
11 11 11 12 13 13 13 13 13 14 14 14 14 14 14 14 13 12 11 12 14 15 15 13 13 13 14 15 15 15 15 15 14 14 15 15 14 17 19 20 20 21 22 22 22 21 20 20 20 21 22 22 22 22 23 23 23 24 24 24 25 26 25 24 24 25 24 23 22 21 20 19 19 19 20 21 21 20 20 21 21 20 18 17 16
Wind_Direction
170 169 170 178 179 179 179 178 176 175 172 167 159 152 147 142 142 147 148 147 148 146 143 142 141 140 140 139 139 138 135 134 132 130 128 125 124 125 123 119 113 109 106 102 97 94 92 89 87 84 81 80 75 70 66 60 57 52 43 38 31 16 3 352 339 336 342 341 333 330 331 331 330 333 333 330 330 331 330 328 328 328 327 325 325
174 172 173 180 180 179 180 179 177 177 174 166 159 153 146 143 147 150 150 151 151 149 146 145 145 143 143 143 142 141 139 138 137 136 135 133 131 129 126 120 115 112 109 105 101 98 97 94 91 87 82 78 72 68 65 59 56 51 42 35 24 13 0 347 338 335 336 337 333 331 333 334 331 333 335 332 330 331 330 330 330 329 328 326 325
177 181 183 182 181 180 179 178 179 178 172 164 160 156 148 147 153 152 153 154 153 152 151 149 148 147 147 147 146 145 144 142 143 143 142 141 136 131 126 120 117 115 112 109 108 105 102 98 94 88 83 79 73 66 61 57 53 45 37 31 15 3 353 340 336 334 330 330 333 333 333 333 332 332 334 334 332 331 330 331 330 329 327 327 326
176 185 186 183 182 182 180 179 180 176 168 163 161 158 153 152 156 156 155 156 156 156 154 152 152 151 151 151 150 150 150 148 149 149 146 142 137 131 125 120 117 117 115 114 113 110 106 100 96 92 85 80 74 66 57 52 51 41 26 20 13 0 349 338 335 331 325 324 330 332 332 331 331 333 335 335 334 333 331 330 329 328 327 327 327
174 182 184 182 182 183 181 180 178 172 165 163 162 159 155 155 158 159 158 159 159 158 157 156 157 156 156 156 155 155 155 155 154 151 146 142 137 131 125 120 118 119 118 117 115 112 108 102 95 91 86 80 73 63 52 46 44 36 22 15 10 358 347 342 338 332 326 326 329 331 332 332 331 334 338 338 335 334 332 330 329 328 328 328 328
172 176 179 180 180 182 181 177 173 170 165 164 163 160 157 158 161 162 162 162 161 161 162 161 161 161 160 160 159 159 159 159 157 153 148 144 139 131 125 122 120 121 120 119 119 114 108 102 93 87 82 77 70 56 44 41 36 25 15 10 5 355 346 344 340 336 333 331 332 334 335 336 335 336 341 340 336 335 333 331 331 330 330 330 331
169 171 174 176 176 178 178 174 170 169 167 166 166 161 159 163 164 164 166 165 164 165 165 164 164 164 163 162 162 162 161 160 157 154 151 147 141 135 129 126 124 124 124 123 121 116 107 99 91 84 79 74 66 49 34 30 27 22 16 7 359 353 350 348 345 342 341 338 338 340 338 338 338 338 340 340 338 337 336 333 332 333 333 333 334
168 168 169 171 171 173 173 171 170 170 168 167 166 162 163 167 166 165 167 167 168 169 168 166 166 166 165 165 164 164 162 160 158 157 155 151 146 140 135 132 129 128 129 128 124 118 109 99 92 87 82 78 70 56 45 37 23 16 15 8 1 356 352 351 350 348 348 345 343 343 340 339 341 340 339 342 342 340 338 334 330 331 333 333 334
170 169 169 169 168 167 167 167 169 170 169 166 165 165 166 167 166 167 169 170 171 172 170 169 168 167 168 167 166 166 165 163 164 163 159 155 150 146 141 138 136 135 136 135 131 125 113 101 97 95 87 78 70 59 50 46 39 28 17 8 3 1 357 355 355 354 351 349 347 345 342 342 344 343 342 345 343 337 335 333 329 330 332 331 333
169 167 167 167 165 163 164 166 166 168 167 165 165 166 166 167 168 169 170 172 173 172 172 172 172 170 170 168 168 169 169 170 171 167 163 160 155 150 148 145 142 142 141 140 140 137 127 115 105 91 77 67 62 55 50 47 44 40 32 24 16 10 4 360 360 359 354 350 349 346 342 342 344 343 342 342 339 335 333 332 330 331 333 333 334
166 163 163 163 163 163 166 167 167 167 168 167 166 167 166 168 170 171 172 173 173 174 175 176 175 175 172 171 172 172 173 179 178 171 166 162 158 154 153 151 149 149 147 147 150 149 144 136 118 89 72 65 54 44 43 47 52 52 48 40 35 31 22 11 4 1 355 351 348 345 342 341 340 341 342 339 337 334 333 331 331 333 335 335 334
166 161 163 165 164 167 170 170 169 169 168 168 168 167 167 170 172 173 173 174 174 176 178 179 178 177 175 175 176 175 180 190 184 175 169 164 159 158 158 157 157 156 156 156 158 160 159 150 135 112 94 93 86 36 28 39 50 52 46 38 35 36 35 29 21 10 356 346 344 344 342 339 337 340 341 337 334 331 330 331 333 332 332 333 331
166 161 165 168 165 168 173 171 169 170 171 170 169 167 169 172 175 175 174 175 177 178 181 181 179 179 178 179 180 178 186 193 185 175 173 168 162 163 165 164 166 165 163 164 163 166 171 164 154 146 98 74 70 49 21 25 26 30 32 28 23 23 24 25 23 19 7 347 337 340 341 338 336 338 338 334 331 330 329 331 332 331 330 330 328
165 164 167 168 167 172 175 172 170 171 172 171 170 170 172 175 176 176 176 177 180 182 183 183 181 182 181 181 182 181 188 193 183 177 179 177 173 175 177 174 176 176 173 174 173 174 178 175 165 157 133 80 53 40 34 14 7 21 31 36 32 25 23 21 18 16 11 352 337 336 338 339 337 335 336 335 331 330 328 326 328 330 328 326 325
164 166 166 166 169 174 174 171 170 171 171 171 172 173 175 176 176 176 177 179 182 184 185 185 184 185 183 183 183 181 190 193 186 182 187 187 186 194 199 194 192 190 187 186 186 185 184 183 176 156 140 110 52 50 55 22 9 25 30 34 42 43 31 23 22 23 15 360 346 340 338 346 348 343 342 341 334 329 325 322 325 329 328 326 329
166 167 166 166 172 175 173 170 172 172 171 172 173 174 175 175 175 176 178 181 184 186 187 187 187 186 185 185 182 180 190 194 189 188 192 192 194 202 212 215 209 203 198 197 197 198 197 195 190 174 163 150 28 42 68 73 28 15 25 30 35 42 23 12 16 20 15 7 0 355 353 355 355 352 348 345 340 332 326 326 332 334 333 333 336
174 172 171 172 175 177 175 173 174 174 175 175 173 172 174 173 174 176 177 179 183 185 186 187 189 188 187 186 182 180 188 192 190 191 193 192 193 199 209 220 222 214 206 204 206 206 208 209 201 184 183 193 359 21 59 75 42 6 20 23 20 30 19 4 3 3 2 1 356 353 354 353 351 350 346 344 344 340 334 335 339 339 338 338 338
173 173 178 181 181 179 175 174 175 177 178 178 176 176 176 177 180 183 182 181 183 184 186 186 186 187 186 186 185 182 184 190 190 190 191 190 190 194 202 211 216 216 211 211 214 213 214 217 205 187 201 225 331 10 49 66 32 357 13 11 8 20 11 359 357 352 350 351 347 344 346 346 345 345 343 342 346 346 340 338 340 340 339 339 337
176 180 185 187 186 183 179 179 182 182 181 179 181 182 182 183 189 192 192 191 187 184 185 185 183 185 186 186 186 183 183 190 193 193 192 192 193 196 203 206 204 206 208 210 214 215 217 222 210 194 202 230 298 355 34 55 28 349 358 1 1 7 360 350 348 344 339 338 338 337 340 342 342 343 344 344 347 348 345 341 340 340 338 336 336
182 182 182 184 185 186 186 188 190 188 185 183 184 185 186 189 193 194 194 191 184 181 184 185 182 183 184 186 187 187 186 192 197 197 195 196 197 201 212 215 205 203 207 211 214 213 213 217 213 206 209 228 269 336 11 38 28 358 351 357 354 351 348 340 338 337 330 325 329 334 337 342 343 344 345 346 348 348 347 344 342 339 335 333 335
176 173 175 181 187 189 190 192 193 191 190 190 189 188 190 193 193 193 191 183 176 179 182 182 182 183 184 186 191 193 193 195 199 201 200 200 201 204 215 225 216 210 212 213 215 215 213 212 212 211 214 228 254 305 343 7 24 13 335 343 345 344 344 337 330 331 326 323 330 335 337 341 343 344 346 346 346 345 344 343 342 337 333 332 333
169 170 175 182 187 189 191 193 193 192 193 193 191 189 191 193 194 194 189 178 173 175 176 178 182 183 184 188 193 197 198 198 200 203 203 203 204 207 214 225 227 223 219 215 217 219 214 207 209 213 214 224 246 261 293 342 12 8 323 332 339 343 345 337 324 324 326 327 331 334 337 340 341 342 344 344 343 342 340 339 340 337 333 332 332
174 175 179 184 187 189 191 192 191 191 193 193 191 187 186 189 191 191 184 175 173 174 175 180 183 181 183 187 191 193 195 198 203 205 205 205 206 209 218 227 230 229 228 221 221 223 217 207 210 216 217 221 236 248 270 306 323 321 325 334 339 341 341 329 318 321 326 328 331 334 337 339 339 341 344 343 339 337 334 334 335 336 334 334 333
177 178 182 186 186 188 190 190 189 190 192 191 187 182 181 183 185 186 184 180 178 177 178 183 185 183 184 185 188 189 189 196 207 209 208 209 211 214 222 229 228 228 232 236 233 225 217 213 215 217 219 224 233 244 260 277 282 292 311 324 331 333 326 317 319 325 326 328 333 336 337 338 340 340 340 337 334 332 332 332 332 335 336 336 335
175 176 177 178 179 181 184 184 184 186 187 186 183 181 182 184 183 184 187 186 184 181 182 184 186 187 187 186 187 188 185 189 204 210 210 212 215 217 219 223 227 228 228 234 239 227 219 218 218 219 223 229 238 249 259 269 279 289 304 315 317 312 307 314 323 326 327 330 334 335 337 339 340 338 333 334 338 341 339 335 333 335 337 338 339
173 171 171 174 174 172 172 175 178 181 183 185 186 185 186 186 185 186 189 189 186 183 182 183 186 188 189 188 185 185 185 186 196 206 209 210 212 211 208 210 220 227 225 224 229 228 223 222 222 225 231 235 240 249 254 258 267 276 285 289 287 288 302 320 325 323 323 329 332 334 336 337 336 337 338 343 349 351 345 337 336 338 339 340 341
169 167 170 175 175 171 169 172 176 178 181 185 187 188 188 189 189 188 188 186 184 185 184 184 187 189 188 187 183 181 186 189 190 196 202 203 203 202 201 201 211 222 225 227 231 232 229 228 228 231 239 244 244 247 250 253 257 263 266 263 263 275 297 312 317 316 314 321 326 329 332 333 334 340 346 350 352 352 348 341 338 340 340 340 342
168 168 169 172 174 174 174 175 175 176 180 185 189 190 189 190 189 190 190 185 181 183 185 185 189 191 186 183 183 183 188 193 191 190 192 193 192 193 194 196 204 216 222 226 230 231 230 233 235 237 242 247 248 247 246 245 246 250 257 263 270 279 284 288 291 292 300 316 324 326 329 332 335 341 346 348 348 349 348 344 341 342 344 344 344
169 169 168 169 172 172 173 176 176 175 177 183 189 193 192 192 191 192 194 193 188 187 188 189 191 192 189 187 187 188 191 196 195 193 193 192 187 184 186 189 194 207 216 217 218 224 227 231 235 237 238 240 243 244 245 245 246 250 256 267 277 284 288 291 290 293 306 319 320 322 326 329 332 338 343 344 343 342 342 342 344 348 350 350 349
169 170 170 171 174 173 172 175 176 175 177 182 188 193 197 199 199 196 198 202 202 201 201 199 196 193 193 195 196 194 196 199 199 199 201 199 193 185 185 189 193 202 212 213 214 223 233 234 235 238 239 240 242 245 249 253 257 261 264 269 276 282 289 293 293 296 307 310 311 315 320 321 324 332 338 338 334 334 337 339 343 349 353 353 352
165 168 171 172 175 175 173 174 176 177 180 182 184 184 188 197 202 201 203 208 211 211 211 209 205 199 197 199 200 198 199 203 207 207 207 205 201 195 194 198 202 209 216 216 218 226 236 239 241 242 242 243 246 248 251 254 258 262 265 268 273 277 279 282 285 291 297 299 303 308 310 314 320 325 328 326 323 325 330 333 338 345 348 350 349
164 167 169 172 174 175 172 172 175 177 177 181 185 184 181 186 196 202 207 212 214 214 215 215 215 213 209 204 198 197 200 206 211 210 204 199 197 198 200 203 206 210 215 215 219 229 235 238 243 245 244 246 248 249 252 254 254 255 258 261 267 271 273 276 281 285 289 292 298 303 304 308 313 314 315 316 316 319 324 326 331 338 340 342 343
168 168 168 169 171 173 171 171 174 177 178 181 185 187 185 185 188 194 201 208 212 213 215 216 219 221 218 212 204 202 206 210 208 200 195 194 196 201 206 210 211 213 217 218 222 230 235 237 242 244 244 247 249 249 251 252 251 253 256 258 263 267 270 274 276 275 278 283 288 294 298 303 307 310 313 316 317 320 322 321 326 334 336 336 339
170 172 173 172 171 173 174 173 174 177 180 182 184 186 188 190 187 185 189 195 202 208 213 215 217 219 219 218 215 213 215 214 208 199 196 199 204 209 213 218 220 220 221 223 226 231 235 238 242 244 245 247 249 250 251 251 251 253 254 255 260 265 269 275 275 272 275 280 283 289 297 303 309 312 313 315 317 317 317 317 322 330 332 331 334
173 177 180 178 174 173 175 176 176 178 182 185 188 188 189 189 189 187 188 190 193 200 207 212 216 218 218 219 220 219 218 215 210 206 207 210 215 217 217 218 220 220 223 226 229 232 236 239 241 244 245 246 247 247 247 248 250 251 252 254 259 264 269 275 276 275 277 282 285 292 298 301 305 309 309 311 314 314 312 315 320 324 325 326 327
171 174 179 181 180 178 177 176 179 184 187 188 188 187 185 186 189 192 193 193 194 197 199 206 215 220 221 222 222 220 219 217 215 215 220 224 226 225 219 216 217 219 222 226 228 230 235 239 241 243 244 245 245 244 243 244 246 249 252 256 261 266 270 275 276 276 278 280 284 289 292 294 299 304 305 307 312 313 313 317 320 317 316 316 316
171 171 176 180 182 181 180 180 184 189 190 186 183 182 185 190 194 195 197 197 197 197 195 194 202 212 217 220 221 220 218 218 219 222 228 231 231 229 224 219 219 220 222 224 226 227 231 236 238 240 242 243 242 241 241 243 245 249 253 256 261 267 270 273 277 279 280 281 281 283 285 288 291 295 298 301 305 309 312 316 317 313 311 310 309
178 176 177 179 179 180 181 182 186 190 188 184 185 188 192 196 197 198 201 200 197 197 198 193 193 199 206 212 216 218 216 215 217 221 225 227 227 227 225 222 224 227 228 227 224 224 228 233 235 235 237 238 238 238 240 242 247 252 255 257 261 266 267 269 273 275 275 274 273 274 278 284 290 295 301 303 303 303 305 308 309 309 310 310 311
182 181 182 183 181 180 181 180 182 185 185 185 191 195 196 197 197 198 202 201 197 198 203 203 202 202 199 201 207 209 208 208 211 216 220 223 225 226 226 225 227 231 232 230 226 225 228 232 233 232 233 234 235 238 241 244 249 254 257 260 264 265 266 267 269 269 267 265 268 273 279 287 294 298 302 304 304 302 301 301 301 302 304 306 309
181 181 184 184 182 179 178 176 176 180 184 189 194 196 196 197 197 198 201 202 199 201 205 206 205 200 190 191 200 202 198 199 206 211 216 222 226 227 226 226 228 230 230 230 230 228 228 231 232 230 231 232 234 238 243 247 252 256 258 261 261 262 264 267 269 270 268 266 268 274 279 285 292 294 296 300 302 300 298 297 296 297 297 298 301
178 176 180 182 180 175 174 176 179 182 185 188 193 196 196 196 198 199 202 203 200 199 201 203 202 196 190 195 205 206 202 202 207 209 213 222 227 229 228 227 228 229 228 229 231 231 230 231 231 229 229 232 235 240 245 249 253 256 258 258 258 259 263 266 265 266 266 266 268 272 276 282 288 290 292 296 298 296 294 293 294 298 299 298 300
171 169 173 178 179 177 178 184 189 189 187 188 196 201 200 198 199 201 201 201 197 194 195 198 198 198 199 206 212 213 209 209 214 215 215 220 224 226 225 224 225 228 231 232 233 232 230 229 229 229 231 234 237 242 247 250 254 257 258 256 253 253 258 264 265 264 263 263 265 269 273 279 284 286 288 292 292 290 289 291 293 297 298 297 298
169 167 170 176 181 184 187 191 192 190 188 191 198 203 202 201 201 201 199 199 198 197 199 202 200 198 203 211 215 215 213 214 217 218 216 214 213 215 219 223 226 231 234 234 233 232 229 228 228 229 232 236 240 244 248 250 254 257 256 254 251 249 251 259 263 263 263 265 268 270 272 274 278 281 282 282 281 281 283 286 287 288 291 294 296
172 171 173 178 183 186 189 191 192 193 195 196 198 200 200 201 203 202 201 202 202 202 206 209 204 196 198 206 210 210 210 213 215 214 214 215 216 217 222 227 232 234 234 234 232 231 228 227 227 230 236 240 242 245 250 252 254 253 252 252 252 248 249 255 259 261 263 265 269 273 273 270 270 274 277 276 275 275 277 279 279 280 285 291 294
177 175 176 179 183 185 186 189 193 196 198 198 199 201 201 203 204 204 203 204 202 202 205 207 201 192 194 203 209 210 212 215 217 219 221 225 227 228 232 235 236 235 233 232 231 229 228 230 235 242 246 249 250 251 253 254 253 251 250 251 252 251 252 257 262 265 266 264 265 269 273 272 270 272 276 277 275 273 273 275 275 274 277 281 285
179 179 180 182 184 186 186 188 191 192 192 193 194 196 201 208 209 206 203 201 200 198 199 200 198 195 198 204 209 213 216 218 220 223 228 231 232 234 237 238 236 234 232 231 229 230 234 240 246 250 253 255 256 257 255 252 252 253 252 252 254 256 257 259 262 265 267 267 267 267 268 268 267 269 273 276 277 276 275 277 279 281 281 279 279
178 181 184 184 186 188 188 190 191 189 188 190 193 197 204 209 207 203 200 200 200 200 200 201 199 199 202 205 205 209 216 222 224 224 228 233 235 236 238 238 235 232 232 232 233 238 244 248 249 251 253 255 258 259 258 255 253 254 255 255 255 256 257 258 260 261 263 265 267 267 267 268 269 270 271 272 272 273 273 274 277 281 283 282 279
180 182 184 185 187 189 187 186 186 185 187 194 200 203 207 207 204 202 201 200 198 198 197 195 193 194 201 208 208 204 211 221 225 226 228 234 238 238 236 236 237 238 238 240 243 247 249 250 250 251 252 254 256 258 259 259 257 256 258 259 256 255 257 258 258 255 253 256 263 268 271 274 275 276 275 273 272 274 275 274 273 275 276 275 275
182 184 186 188 190 190 187 186 187 189 194 199 201 203 206 206 204 201 197 191 190 192 192 194 199 201 205 211 211 204 205 215 223 226 228 234 239 242 242 242 246 250 250 248 249 251 252 252 253 253 253 254 256 257 259 261 260 258 258 258 256 256 261 264 263 261 261 263 267 270 273 274 276 278 280 281 281 281 280 278 278 278 276 273 272
184 186 189 190 192 193 193 193 195 196 198 199 199 200 202 202 200 196 187 186 196 201 198 197 203 208 208 210 210 206 205 212 220 226 230 234 242 248 250 250 250 251 250 250 251 253 253 254 255 255 254 255 258 260 262 263 262 259 258 259 259 262 266 269 268 267 268 270 271 272 271 272 274 276 279 282 283 283 283 283 282 280 276 273 272
186 190 191 189 191 193 194 194 196 198 199 201 202 202 200 199 199 196 190 192 200 203 202 202 206 209 212 214 213 210 209 214 220 227 231 234 236 242 246 248 247 246 248 251 253 253 252 251 252 255 257 258 260 262 263 263 262 262 262 263 264 267 269 268 267 267 268 268 268 267 266 266 269 273 277 279 278 277 279 281 281 279 276 273 272